Lapse_Rate
6.1 5.9 5.8 5.8 5.9 5.9 5.9 5.9 6.0 6.2 6.2 6.2 6.2 6.2 6.0 6.2 6.4 6.5 6.6 6.5 6.3 6.3 6.3 6.3 6.5 6.6 6.8 6.7 6.6 6.4 6.3 6.3 6.3 6.2 6.1 6.2 6.2 6.4 6.5 6.6 6.6 6.7 6.7
6.1 5.9 5.9 5.8 5.8 5.9 5.9 6.1 6.1 6.2 6.3 6.3 6.3 6.2 6.2 6.3 6.5 6.6 6.8 6.7 6.5 6.5 6.5 6.4 6.4 6.6 6.7 6.7 6.6 6.5 6.4 6.3 6.3 6.2 6.1 6.0 6.0 6.1 6.2 6.2 6.4 6.4 6.5
5.8 5.9 6.0 6.1 6.1 6.2 6.0 6.0 6.1 6.1 6.1 6.1 6.1 6.1 6.1 6.2 6.4 6.6 6.7 6.9 6.8 6.6 6.5 6.5 6.5 6.5 6.7 6.6 6.5 6.4 6.4 6.3 6.3 6.3 6.1 6.1 6.0 6.0 6.0 6.1 6.1 6.2 6.3
5.8 6.0 6.1 6.2 6.2 6.2 6.1 6.1 6.0 6.1 6.2 6.2 6.1 6.0 5.9 6.0 6.3 6.5 6.7 6.8 6.8 6.7 6.6 6.6 6.6 6.5 6.6 6.5 6.5 6.5 6.4 6.3 6.3 6.3 6.2 6.1 6.1 6.1 6.1 6.0 6.0 6.0 6.1
5.8 5.8 5.9 6.1 6.0 6.0 6.0 6.0 6.1 6.1 6.1 6.2 6.3 6.2 6.1 6.0 6.1 6.3 6.5 6.6 6.7 6.9 6.8 6.6 6.6 6.5 6.4 6.7 6.6 6.6 6.5 6.4 6.4 6.3 6.3 6.2 6.1 6.0 6.1 6.0 6.0 6.0 6.0
6.0 5.8 5.7 5.8 5.6 5.7 5.8 5.9 5.9 5.9 6.0 6.1 6.0 6.1 6.0 6.3 6.1 6.2 6.4 6.5 6.8 6.9 6.9 6.7 6.7 6.8 6.8 6.8 6.8 6.6 6.5 6.4 6.3 6.3 6.3 6.2 6.2 6.2 6.1 6.1 6.0 5.9 5.9
5.9 5.8 5.8 5.8 5.7 5.7 5.7 5.7 5.7 5.8 5.8 6.0 5.8 6.0 6.0 5.9 6.1 6.4 6.4 6.5 6.7 6.8 6.8 6.9 6.7 6.7 6.8 6.8 6.8 6.7 6.5 6.3 6.3 6.3 6.2 6.2 6.1 6.0 6.0 5.8 5.9 5.8 5.8
5.5 5.6 5.5 5.6 5.7 5.7 5.7 5.8 5.8 5.7 5.9 5.9 5.9 5.9 5.7 5.9 6.3 6.3 6.1 6.3 6.5 6.6 6.8 6.9 7.0 6.8 6.7 6.6 6.6 6.5 6.5 6.5 6.4 6.3 6.3 6.3 6.2 5.9 6.0 5.9 5.9 5.9 5.9
5.7 5.5 5.2 5.1 5.5 5.7 5.9 6.0 6.0 5.9 5.9 5.9 5.9 5.8 5.7 5.8 5.9 6.2 6.3 6.3 6.3 6.3 6.6 6.8 6.8 6.8 6.6 6.4 6.4 6.5 6.3 6.1 6.2 6.2 6.2 6.3 6.2 6.2 6.1 5.9 5.7 5.6 5.7
6.3 6.0 5.7 5.3 5.1 5.4 5.8 6.0 5.8 5.9 5.9 6.0 5.9 6.0 6.1 6.0 5.8 5.8 6.2 6.4 6.4 6.4 6.5 6.5 6.5 6.6 6.6 6.3 6.2 6.1 6.0 6.0 5.7 5.7 5.9 5.8 5.9 6.1 6.2 6.2 5.9 5.6 5.5
6.5 6.3 6.1 5.8 5.7 5.4 5.3 5.6 5.7 5.7 5.7 5.8 6.0 6.1 6.1 6.0 6.2 6.2 6.0 6.1 6.3 6.5 6.5 6.4 6.3 6.2 6.2 6.3 6.2 5.9 5.8 5.8 6.0 5.9 5.6 5.6 5.1 5.3 5.4 6.0 6.0 5.5 5.4
6.3 6.4 6.4 6.3 6.1 5.9 5.8 5.3 5.6 5.6 5.7 5.8 5.7 5.9 6.0 6.0 6.0 6.2 6.1 6.3 6.2 6.5 6.5 6.4 6.0 5.9 6.0 5.8 6.0 6.0 5.9 5.6 5.6 5.7 5.8 5.3 5.5 5.5 5.4 5.3 5.8 5.5 5.3
6.0 6.0 6.2 6.5 6.4 6.3 6.1 5.9 5.7 5.6 5.8 5.7 5.5 5.5 5.7 5.9 5.9 5.8 6.1 6.1 6.2 6.0 6.3 6.3 6.3 6.0 6.1 6.1 5.8 5.8 5.8 5.8 5.5 5.6 5.4 5.6 5.6 5.5 5.5 5.2 5.6 5.6 5.2
5.8 5.8 5.8 6.0 6.1 6.1 6.0 6.1 6.1 6.0 6.0 5.9 5.7 5.8 5.7 5.6 5.8 6.0 6.0 6.0 6.1 6.6 6.4 5.9 6.4 6.3 6.1 6.1 6.2 5.8 5.9 5.6 5.5 5.4 5.1 5.5 5.4 5.2 5.1 5.1 5.1 5.3 5.4
6.1 6.0 5.9 5.7 5.6 5.6 5.8 6.0 5.9 5.8 5.9 5.8 5.6 5.5 5.4 5.5 5.7 5.8 6.1 6.6 6.7 6.8 7.0 6.7 6.4 6.3 6.0 6.5 6.2 6.1 5.9 5.6 5.7 5.6 5.4 5.5 5.0 5.0 5.1 5.0 5.2 5.4 5.5
6.3 6.2 6.1 5.9 5.9 5.8 5.8 5.6 5.6 5.6 5.7 5.5 5.5 5.5 5.6 5.6 5.6 6.0 6.5 6.9 7.0 6.9 7.0 7.2 6.8 6.5 6.3 6.3 6.1 6.0 6.0 5.9 5.7 5.1 5.4 5.3 5.2 5.3 5.3 5.5 5.5 5.5 5.6
6.2 6.2 6.2 6.3 6.2 5.9 5.7 5.5 5.4 5.5 5.5 5.6 5.6 5.4 5.4 5.3 5.5 5.8 6.4 6.7 7.0 7.1 6.8 6.5 6.5 6.2 6.2 6.3 5.8 6.5 6.0 5.7 5.4 5.4 5.7 5.5 5.5 5.2 5.3 5.4 5.6 5.6 5.3
6.3 6.3 6.1 6.1 5.9 5.7 5.7 5.6 5.7 5.9 5.9 5.5 5.4 5.2 5.0 4.9 5.1 5.6 5.8 5.9 6.3 6.4 6.4 6.3 6.7 6.4 6.1 6.1 6.1 6.2 6.1 5.5 5.5 5.4 5.7 5.9 5.4 5.3 5.3 5.4 5.4 5.6 5.4
6.4 6.2 6.1 6.0 5.8 5.6 5.6 5.6 5.7 5.8 5.8 5.4 5.4 5.3 5.1 5.0 5.0 5.2 5.5 5.9 6.2 6.4 6.6 6.3 6.5 6.2 6.1 6.2 6.1 6.1 6.0 5.8 5.7 5.8 5.8 5.6 5.5 5.3 5.3 5.3 5.4 5.4 5.3
6.3 6.2 6.0 5.9 5.7 5.6 5.6 5.7 5.7 5.8 5.8 5.5 5.5 5.6 5.7 5.8 5.6 5.5 5.5 5.9 6.4 6.3 6.4 6.3 5.8 6.2 6.1 6.3 6.1 6.2 6.0 5.5 5.5 5.5 5.4 5.4 5.4 5.5 5.4 5.5 5.6 5.7 5.9
6.3 6.1 6.0 5.8 5.7 5.6 5.6 5.6 5.8 6.0 5.9 5.6 5.6 5.7 5.6 5.8 5.7 5.5 5.6 5.9 6.0 6.2 6.3 6.3 6.1 6.1 5.7 5.5 5.6 5.5 5.6 5.5 5.0 5.0 5.2 5.3 5.6 5.6 5.7 6.0 6.1 5.9 5.6
6.1 6.2 6.2 6.0 5.7 5.6 5.6 5.7 5.9 5.8 5.5 5.6 5.6 5.7 5.7 5.8 5.6 5.8 6.1 5.5 5.2 5.5 5.6 5.5 5.7 5.9 5.5 5.4 5.5 5.4 5.1 5.1 5.1 5.3 5.4 5.5 5.9 5.8 5.7 5.6 5.3 5.3 5.5
6.1 6.3 6.3 6.0 5.8 5.7 5.8 5.9 5.9 5.7 5.6 5.7 5.8 6.0 5.9 5.8 5.8 5.8 5.9 6.0 5.8 5.7 5.7 5.7 5.7 5.6 5.3 5.3 5.2 5.2 5.3 5.3 5.2 5.0 5.2 5.3 5.0 5.3 5.6 5.4 5.7 5.8 5.7
6.1 6.3 6.2 5.9 5.7 5.8 5.8 5.9 6.0 5.9 5.9 5.9 6.0 6.1 6.0 6.0 6.0 6.0 6.0 6.0 6.0 5.9 5.8 5.8 5.7 5.6 5.6 5.5 5.5 5.4 5.3 5.3 5.1 5.0 5.3 5.4 5.5 5.5 5.6 5.7 5.7 5.6 5.6
6.4 6.3 6.1 6.0 6.0 6.0 6.0 6.0 6.0 5.9 6.0 6.0 6.1 6.1 6.2 6.2 6.3 6.2 6.4 6.5 6.5 6.4 6.3 6.1 5.9 5.9 5.7 5.6 5.6 5.4 5.1 5.1 5.1 5.1 5.5 5.5 5.5 5.5 5.5 5.5 5.4 5.6 5.8
6.5 6.3 6.2 6.1 6.1 6.1 6.1 6.1 6.0 6.0 6.0 6.1 6.3 6.4 6.4 6.4 6.5 6.6 6.6 6.7 6.7 6.6 6.5 6.5 6.4 6.2 6.0 5.9 5.7 5.5 5.3 5.2 5.2 5.1 5.3 5.5 5.4 5.4 5.5 5.8 6.1 6.2 6.2
Wind_Speed
7 11 11 12 13 14 13 11 10 9 9 11 10 10 10 6 9 14 14 15 14 14 12 11 10 10 10 10 10 10 10 10 10 10 10 10 10 9 9 9 10 10 10
11 11 9 10 11 14 14 13 10 9 8 10 8 11 10 7 9 15 15 17 16 16 14 13 12 12 11 12 11 11 11 10 10 10 10 9 9 9 9 9 9 9 9
14 13 11 9 13 15 15 13 11 9 5 7 6 8 9 9 9 13 16 17 18 18 17 15 15 15 14 13 12 12 12 12 11 10 10 9 9 8 8 8 7 7 7
17 13 8 8 15 14 12 7 5 4 4 4 4 5 5 8 10 14 15 17 18 18 19 18 18 18 17 16 15 14 13 12 11 11 10 9 8 8 7 6 6 6 5
19 16 11 11 15 10 7 5 5 4 4 4 5 5 5 5 7 10 13 16 19 19 20 20 19 19 19 19 17 16 15 14 13 11 11 10 9 8 7 7 5 4 3
14 12 9 11 13 5 6 4 6 4 4 5 4 4 4 5 6 5 8 15 17 20 22 22 20 20 20 19 19 17 16 15 15 13 12 11 10 9 8 7 6 5 4
11 10 6 5 7 7 10 9 6 7 5 3 3 2 2 5 6 5 8 10 11 16 19 20 20 21 18 20 20 19 18 17 15 14 13 12 11 10 9 8 7 6 6
12 8 6 6 7 8 6 7 7 4 4 6 4 1 3 3 5 8 5 7 9 13 14 17 18 20 21 21 21 20 20 18 16 15 14 13 12 11 9 8 7 6 7
13 12 10 5 5 7 8 9 8 8 9 3 4 4 1 6 1 1 7 6 7 6 9 13 15 17 20 21 21 19 18 18 17 15 14 14 13 12 9 8 9 8 8
9 11 11 9 8 7 8 8 8 10 5 6 2 7 3 2 4 4 2 2 3 6 5 6 12 15 18 18 21 22 19 16 16 15 14 13 12 12 9 9 9 10 9
6 10 11 9 8 6 8 9 6 7 7 9 4 2 4 2 1 3 4 3 3 4 5 7 12 15 18 17 16 18 18 18 18 15 14 13 11 12 9 9 9 9 9
4 4 7 7 6 5 6 6 8 8 9 8 6 6 6 4 9 5 3 4 4 3 4 5 8 11 14 14 17 22 22 20 18 15 12 10 8 12 9 8 8 10 12
3 5 5 4 3 5 5 4 5 7 7 7 9 8 8 9 2 3 6 6 5 3 3 2 3 7 11 15 11 14 19 17 11 9 11 11 11 8 6 7 10 11 14
3 5 6 6 6 4 4 3 3 4 4 6 8 7 7 7 6 7 8 6 3 4 2 5 1 2 9 15 20 22 21 19 15 12 11 11 6 7 8 10 15 14 15
3 4 5 6 6 6 5 3 1 3 2 4 5 6 5 4 3 5 6 5 8 3 4 4 3 1 2 10 18 17 14 17 17 15 14 12 14 15 14 15 17 16 17
5 5 5 5 5 6 6 6 4 4 4 2 1 4 3 0 2 2 3 2 2 6 4 2 2 3 1 2 11 12 12 16 15 13 15 16 16 15 17 19 19 19 18
6 6 6 6 6 6 7 5 5 5 5 4 5 5 4 3 1 1 1 0 2 2 5 2 2 2 3 4 5 9 10 6 9 14 16 13 15 19 22 20 19 18 19
5 6 5 6 7 7 6 6 6 6 7 8 6 5 5 3 4 4 2 3 3 1 2 3 0 1 3 0 3 4 8 7 6 11 17 17 20 19 18 18 19 18 19
6 6 7 7 7 7 7 7 7 7 8 6 6 5 4 4 4 3 3 3 3 2 2 1 1 2 1 2 1 2 3 5 7 12 13 14 16 17 19 17 17 17 19
6 6 7 6 6 6 6 7 6 6 6 7 7 6 6 5 4 3 3 2 1 2 2 2 1 1 1 2 1 1 2 2 2 8 11 12 10 10 14 15 16 15 13
6 6 7 8 8 9 6 6 6 7 8 8 8 7 7 8 8 6 2 3 3 2 2 2 2 1 1 1 1 1 0 0 2 2 2 1 2 8 12 14 15 16 16
7 9 10 9 8 6 12 12 9 7 7 6 6 7 7 11 12 13 10 8 5 2 3 2 1 2 2 1 1 2 2 1 1 1 1 2 5 5 10 13 14 14 14
8 8 8 6 6 7 13 13 13 6 6 5 5 4 5 5 7 5 9 9 10 10 6 2 1 1 1 1 2 1 1 2 2 2 1 4 3 5 9 11 13 14 13
6 5 6 7 6 7 12 12 12 5 4 3 3 3 3 3 3 4 3 4 5 5 4 2 1 1 2 3 3 4 3 2 2 3 4 3 1 3 5 12 13 14 12
5 4 4 5 5 4 10 10 7 4 4 4 3 3 4 3 5 6 4 4 4 4 8 7 5 4 4 5 4 3 0 2 2 2 1 1 2 3 3 3 5 3 2
4 3 3 3 5 3 8 7 4 2 3 3 4 5 8 5 7 6 4 3 3 2 3 5 5 7 7 7 7 2 3 3 2 3 2 1 2 3 4 2 2 6 9
Wind_Direction
188 190 204 203 206 203 206 211 220 229 233 234 241 233 247 210 205 200 197 191 179 180 182 182 180 181 174 172 165 159 151 141 134 130 124 119 115 106 98 93 92 91 90
193 196 199 208 215 207 210 210 211 216 228 223 226 227 237 221 211 203 203 197 190 186 190 193 191 193 190 183 178 171 167 156 148 144 138 132 129 121 111 104 98 96 94
196 195 200 207 214 211 210 213 221 220 233 237 234 223 219 228 212 210 207 204 200 196 195 203 201 199 197 195 190 183 178 170 165 158 154 147 144 137 129 120 112 107 105
203 198 206 210 212 208 209 202 210 218 217 210 228 225 216 222 219 213 211 210 208 205 204 207 207 204 204 201 197 194 188 184 176 173 170 165 163 158 153 147 139 129 122
206 201 209 213 201 205 206 204 213 191 196 212 225 227 224 220 217 208 211 212 213 211 208 212 213 209 208 208 206 203 199 194 188 186 185 181 176 178 173 171 175 173 163
225 217 219 215 194 195 216 204 214 200 196 202 210 219 238 242 226 220 209 213 216 215 213 213 215 213 207 213 214 211 208 204 200 198 198 199 196 190 195 191 193 204 209
223 216 221 222 205 207 218 212 208 207 228 181 117 284 272 242 247 227 219 215 216 216 216 216 213 211 206 209 216 216 212 208 208 209 208 207 208 208 208 221 214 222 236
233 226 215 215 204 229 219 214 200 216 237 186 177 71 263 309 250 230 204 216 216 207 212 213 212 209 207 205 209 215 216 214 217 219 218 214 212 215 218 225 240 239 255
230 222 222 213 216 222 227 218 214 205 237 240 239 175 119 228 343 269 233 215 209 201 211 209 209 209 211 210 208 212 214 217 223 224 225 218 220 218 218 229 250 254 261
246 240 233 219 224 212 221 221 217 220 206 219 223 248 283 158 195 300 289 277 211 219 202 200 208 211 211 210 208 206 203 214 222 229 228 223 224 226 224 239 250 265 271
268 245 238 242 226 215 217 217 210 206 208 226 199 168 226 251 252 211 270 290 287 231 203 201 205 213 212 205 203 205 203 209 224 218 224 220 220 242 242 252 261 278 290
301 327 272 238 234 228 207 209 212 206 210 224 211 207 204 194 226 215 238 267 254 242 227 215 214 209 202 201 202 202 196 204 213 220 215 227 236 253 249 270 292 296 290
360 348 346 328 253 229 241 208 202 210 204 210 215 221 228 233 217 208 229 240 242 267 293 251 215 194 180 171 187 193 188 194 197 219 226 224 235 262 287 284 285 284 288
344 344 347 1 7 345 298 258 197 218 202 213 211 217 225 229 213 225 229 210 221 202 178 257 299 259 177 178 181 180 184 185 194 200 220 222 230 256 270 274 270 271 275
358 7 5 0 2 8 5 340 29 306 225 227 227 222 220 240 231 233 237 218 245 252 229 215 183 335 136 163 172 161 162 178 184 180 205 235 244 248 251 262 267 266 265
23 22 16 21 16 19 16 29 35 28 17 9 326 247 222 255 199 176 197 231 248 255 271 162 186 107 47 166 168 157 162 178 191 212 231 230 245 250 260 263 263 263 267
25 30 20 24 24 24 18 39 47 35 53 42 28 6 40 23 56 24 19 79 199 178 264 15 329 156 136 167 152 137 153 175 202 226 238 231 249 262 265 263 264 269 272
29 31 31 38 30 25 22 29 43 37 44 42 38 47 37 31 40 25 16 349 326 267 198 214 123 267 99 296 116 130 159 190 206 229 240 245 256 267 267 266 265 265 271
36 32 36 38 33 28 31 27 40 49 54 48 37 47 33 32 35 13 14 7 353 9 2 45 45 26 47 122 125 126 149 221 229 245 256 255 254 255 258 265 271 270 270
49 42 39 39 40 40 37 40 47 55 58 53 49 47 44 48 52 59 66 74 69 99 69 111 122 158 152 102 157 137 196 196 239 253 244 246 253 272 274 277 275 271 280
45 54 54 44 37 40 40 37 44 50 55 54 46 40 41 62 78 73 70 45 45 41 61 55 77 33 54 87 173 98 148 273 245 227 272 295 315 281 275 277 274 269 270
50 53 52 51 43 52 56 63 67 65 61 57 55 43 36 40 39 58 72 80 80 43 41 32 53 55 68 69 120 186 178 103 308 324 263 276 238 262 259 274 269 264 264
57 52 44 36 51 55 58 61 67 59 61 56 59 57 59 43 44 36 28 30 26 33 48 85 72 69 36 50 95 66 122 147 223 265 242 275 217 262 265 267 274 274 266
59 54 52 44 43 55 61 66 70 55 55 40 50 69 75 34 38 51 29 10 10 2 354 4 103 165 190 186 175 171 184 210 278 259 205 255 267 264 272 277 277 268 259
64 52 49 52 48 17 73 75 75 45 36 10 8 12 59 23 2 40 56 23 8 3 14 56 47 4 326 323 301 123 175 94 293 261 225 252 314 299 294 310 327 206 120
78 59 28 27 35 357 60 71 62 36 33 12 5 9 12 24 13 32 66 39 10 310 349 353 350 345 338 325 308 237 162 174 196 330 269 119 334 6 328 313 319 302 317